Orbital Elements at Epoch 2459200.5 (2020-Dec-17.0) TDB
Reference: JPL 22 (heliocentric ecliptic J2000)
Element | Value | Uncertainty (1-sigma) | Units |
e | .1033789995171234 | 4.2044e-08 | |
a | 3.136877735592619 | 3.252e-08 | au |
q | 2.812590453679514 | 1.3943e-07 | au |
i | 6.48424903491943 | 3.9607e-06 | deg |
node | 90.33980072041109 | 4.7616e-05 | deg |
peri | 53.30933656437116 | 5.4736e-05 | deg |
M | 248.5495385253175 | 3.0116e-05 | deg |
tp | 2459828.737975339023 (2022-Sep-06.23797534) | 0.00017597 | TDB |
period | 2029.293267425591 5.56 | 3.1557e-05 8.64e-08 | d yr |
n | .1774016628245677 | 2.7587e-09 | deg/d |
Q | 3.461165017505723 | 3.5882e-08 | au |
|
| | Orbit Determination Parameters
Additional Information
|